GW3588 Weather Reports


time (UTC)temp
C
wind
direction
speed
KPH
gust
KPH
rain 1hr
cm
rain 24hr
cm
rain mn
cm
humidity
%
barometer
mb
20260507121334 10 238 11.3 14.5 0.00 0.00 0.00 85 1006.5
20260507120835 10 241 9.7 12.9 0.00 0.00 0.00 86 1006.5
20260507120334 9 248 9.7 12.9 0.00 0.00 0.00 86 1006.5
20260507115834 9 246 11.3 12.9 0.00 0.00 0.00 87 1006.7
20260507115334 9 250 9.7 12.9 0.00 0.00 0.00 87 1006.5
20260507114834 9 251 9.7 12.9 0.00 0.00 0.00 87
20260507114334 9 270 9.7 12.9 0.00 0.00 0.00 87
20260507113835 9 269 8.0 11.3 0.00 0.00 0.00 88 1006.3
20260507113335 8 283 8.0 11.3 0.00 0.00 0.00 87
20260507112834 8 289 6.4 8.0 0.00 0.00 0.00 88
20260507112334 8 297 8.0 9.7 0.00 0.00 0.00 87
20260507111835 8 289 8.0 8.0 0.00 0.00 0.00 87 1006.5
20260507111334 8 294 6.4 8.0 0.00 0.00 0.00 87 1006.6
20260507110834 8 297 6.4 11.3 0.00 0.00 0.00 87 1006.5
20260507110334 8 305 9.7 14.5 0.00 0.00 0.00 87 1006.4
20260507105834 8 298 11.3 16.1 0.00 0.00 0.00 87 1006.1
20260507105334 8 296 12.9 16.1 0.00 0.00 0.00 87 1006.1
20260507104834 8 289 14.5 17.7 0.00 0.00 0.00 87 1006.1
20260507104334 8 288 12.9 20.9 0.00 0.00 0.00 88 1005.9
20260507103834 8 289 12.9 17.7 0.00 0.00 0.00 88 1005.9
20260507103334 8 277 12.9 17.7 0.00 0.00 0.00 88 1006.3
20260507102834 8 278 14.5 19.3 0.00 0.00 0.00 88 1006.2
20260507102334 8 284 12.9 19.3 0.00 0.00 0.00 88 1006.0
20260507101834 8 280 11.3 16.1 0.00 0.00 0.00 88 1005.9
20260507101334 8 274 11.3 20.9 0.00 0.00 0.00 88 1005.9
20260507100834 8 261 16.1 19.3 0.00 0.00 0.00 88 1006.2
20260507100334 8 258 14.5 20.9 0.00 0.00 0.00 88 1006.1
20260507095834 8 263 12.9 19.3 0.00 0.00 0.00 88 1005.8
20260507095334 8 256 14.5 20.9 0.00 0.00 0.00 88 1006.0
20260507094834 8 252 17.7 20.9 0.00 0.00 0.00 88 1005.9
20260507094334 8 250 14.5 22.5 0.00 0.00 0.00 88 1005.8
20260507093834 8 255 17.7 25.7 0.00 0.00 0.00 88 1005.8
20260507093334 8 250 22.5 27.4 0.00 0.00 0.00 88 1006.0
20260507092834 8 253 20.9 24.1 0.00 0.00 0.00 88 1005.8
20260507092334 8 251 19.3 24.1 0.00 0.00 0.00 88
20260507091834 8 252 20.9 25.7 0.00 0.00 0.00 88 1005.7
20260507091334 8 251 20.9 25.7 0.00 0.00 0.00 88
20260507090834 8 260 16.1 22.5 0.00 0.00 0.00 88 1005.6
20260507090334 8 271 19.3 25.7 0.00 0.00 0.00 87 1005.3
20260507085834 8 273 17.7 27.4 0.00 0.00 0.00 87
20260507085334 9 267 17.7 25.7 0.00 0.00 0.00 87
20260507084833 9 261 17.7 29.0 0.00 0.00 0.00 87
20260507084334 9 272 19.3 27.4 0.00 0.00 0.00 87 1005.2
20260507083833 9 268 22.5 30.6 0.00 0.00 0.00 87
20260507083334 9 270 19.3 29.0 0.00 0.00 0.00 87 1005.2
20260507082834 9 266 19.3 25.7 0.00 0.00 0.00 87 1005.2
20260507082334 9 264 19.3 27.4 0.00 0.00 0.00 87 1005.3
20260507081834 9 260 22.5 32.2 0.00 0.00 0.00 87
20260507081334 9 263 19.3 29.0 0.00 0.00 0.00 87
20260507080834 10 258 24.1 38.6 0.00 0.00 0.00 87 1005.1
20260507080334 10 256 25.7 33.8 0.00 0.00 0.00 87
20260507075834 10 257 22.5 29.0 0.00 0.00 0.00 87
20260507075334 10 262 20.9 30.6 0.00 0.00 0.00 87 1005.0
20260507074833 10 262 19.3 33.8 0.00 0.00 0.00 88 1004.9
20260507074333 10 260 20.9 33.8 0.00 0.00 0.00 88 1004.9
20260507073834 10 260 20.9 32.2 0.00 0.00 0.00 88 1004.7
20260507073333 10 265 24.1 32.2 0.00 0.00 0.00 88 1004.7
20260507072833 10 257 22.5 37.0 0.00 0.00 0.00 88 1004.7
20260507072333 10 254 24.1 32.2 0.00 0.00 0.00 88 1004.9
20260507071833 10 251 20.9 30.6 0.00 0.00 0.00 88 1004.9
20260507071334 10 253 22.5 35.4 0.00 0.00 0.00 89 1004.7
20260507070833 10 251 25.7 33.8 0.00 0.00 0.00 89 1004.5
20260507070333 10 251 27.4 38.6 0.00 0.00 0.00 90 1004.5
20260507065833 10 255 29.0 38.6 0.00 0.00 0.00 90
20260507065333 10 249 25.7 38.6 0.00 0.00 0.00 90 1004.7
20260507064834 10 250 24.1 30.6 0.00 0.00 0.00 90
20260507064333 10 252 22.5 30.6 0.00 0.00 0.00 91
20260507063833 10 239 19.3 29.0 0.00 0.00 0.00 91 1004.3
20260507063333 10 240 20.9 29.0 0.00 0.00 0.00 91 1004.4
20260507062833 10 247 20.9 29.0 0.00 0.00 0.00 91 1004.3
20260507062333 10 251 22.5 30.6 0.00 0.00 0.00 92
20260507061833 10 248 19.3 29.0 0.00 0.00 0.00 92 1004.4
20260507061333 10 242 20.9 27.4 0.00 0.00 0.00 92
20260507060833 10 249 20.9 29.0 0.00 0.00 0.00 92 1004.4
20260507060333 10 254 25.7 33.8 0.00 0.00 0.00 93 1004.4
20260507055833 10 253 25.7 32.2 0.00 0.00 0.00 93 1004.5
20260507055333 10 244 22.5 27.4 0.00 0.00 0.00 93 1004.6
20260507054833 10 231 16.1 27.4 0.00 0.00 0.00 93
20260507054333 10 233 19.3 27.4 0.00 0.00 0.00 93
20260507053833 10 229 19.3 30.6 0.00 0.00 0.00 94
20260507053333 10 219 14.5 24.1 0.00 0.00 0.00 94 1004.8
20260507052833 10 220 11.3 24.1 0.00 0.00 0.00 94 1004.5
20260507052333 10 246 20.9 33.8 0.00 0.00 0.00 94 1004.6
20260507051833 10 246 25.7 40.2 0.00 0.00 0.00 95 1004.7
20260507051341 10 242 29.0 40.2 0.00 0.00 0.00 95
20260507050833 10 236 20.9 30.6 0.00 0.00 0.00 94 1004.7
20260507050333 10 240 19.3 27.4 0.00 0.00 0.00 94 1004.4
20260507045833 11 254 19.3 24.1 0.00 0.00 0.00 95 1004.2
20260507045333 11 244 20.9 25.7 0.00 0.00 0.00 95 1004.3
20260507044833 11 230 14.5 22.5 0.00 0.00 0.00 95 1004.4
20260507044333 11 231 14.5 22.5 0.00 0.00 0.00 95 1004.7
20260507043833 11 239 17.7 27.4 0.00 0.00 0.00 95 1004.7
20260507043333 11 238 20.9 29.0 0.00 0.00 0.00 95 1004.6
20260507042833 11 233 17.7 27.4 0.00 0.00 0.00 95 1004.6
20260507042333 11 226 17.7 25.7 0.00 0.00 0.00 95 1004.5
20260507041833 11 237 17.7 22.5 0.00 0.00 0.00 95
20260507041333 12 231 17.7 24.1 0.00 0.00 0.00 95 1004.5
20260507040833 12 225 14.5 24.1 0.00 0.00 0.00 94 1004.4
20260507040333 12 223 16.1 27.4 0.00 0.00 0.00 95 1004.3
20260507035833 12 214 14.5 22.5 0.00 0.00 0.00 95 1004.1
20260507035333 12 215 12.9 25.7 0.00 0.00 0.00 95
20260507034833 12 212 17.7 29.0 0.00 0.00 0.00 96 1004.2
20260507034333 11 199 17.7 27.4 0.00 0.00 0.00 96
20260507033833 11 173 12.9 20.9 0.00 0.00 0.00 95
20260507033333 11 168 14.5 22.5 0.00 0.00 0.00 95 1003.9
20260507032833 11 163 12.9 20.9 0.00 0.00 0.00 95
20260507032333 11 161 12.9 22.5 0.00 0.00 0.00 95 1003.8
20260507031833 11 160 14.5 24.1 0.00 0.00 0.00 95 1003.7
20260507031333 11 163 14.5 20.9 0.00 0.00 0.00 95 1003.7
20260507030833 11 157 14.5 25.7 0.00 0.00 0.00 94
20260507030333 12 154 16.1 27.4 0.00 0.00 0.00 95 1003.6
20260507025833 12 153 17.7 32.2 0.00 0.00 0.00 95
20260507025333 12 150 20.9 33.8 0.00 0.00 0.00 95 1003.7
20260507024833 12 149 17.7 30.6 0.00 0.00 0.00 95 1003.6
20260507024333 12 146 19.3 29.0 0.00 0.00 0.00 95 1003.7
20260507023833 12 156 17.7 29.0 0.00 0.00 0.00 95 1003.9
20260507023333 11 145 17.7 25.7 0.00 0.00 0.00 95
20260507022833 11 147 19.3 29.0 0.00 0.00 0.00 95 1003.7
20260507022333 12 142 17.7 27.4 0.00 0.00 0.00 95 1003.9
20260507021832 11 150 19.3 29.0 0.00 0.00 0.00 95 1003.7
20260507021332 11 151 20.9 32.2 0.00 0.00 0.00 95
20260507020833 11 154 17.7 30.6 0.00 0.00 0.00 95
20260507020332 11 155 17.7 29.0 0.00 0.00 0.00 95 1004.0
20260507015832 11 154 19.3 33.8 0.00 0.00 0.00 95 1004.0
20260507015332 11 156 19.3 30.6 0.00 0.00 0.00 95 1003.9
20260507014833 11 152 17.7 32.2 0.00 0.00 0.00 94 1004.0
20260507014333 11 155 20.9 32.2 0.00 0.00 0.00 95 1003.9
20260507013833 11 150 20.9 40.2 0.00 0.00 0.00 95 1004.1
20260507013332 11 154 20.9 32.2 0.00 0.00 0.00 94 1004.1
20260507012832 11 151 19.3 32.2 0.00 0.00 0.00 95
20260507012332 11 147 17.7 38.6 0.00 0.00 0.00 94 1004.2
20260507011832 11 151 20.9 41.8 0.00 0.00 0.00 94 1004.2
20260507011332 11 146 20.9 38.6 0.00 0.00 0.00 94 1004.2
20260507010833 11 143 22.5 38.6 0.00 0.00 0.00 94
20260507010333 11 143 24.1 35.4 0.00 0.00 0.00 94 1004.2
20260507005832 11 141 22.5 41.8 0.00 0.00 0.00 94 1004.2
20260507005332 11 142 24.1 43.5 0.00 0.00 0.00 94
20260507004832 11 148 25.7 41.8 0.00 0.00 0.00 94 1004.1
20260507004332 11 150 22.5 46.7 0.00 0.00 0.00 94 1004.2
20260507003832 11 149 25.7 46.7 0.00 0.00 0.00 94 1004.3
20260507003332 11 143 27.4 41.8 0.00 0.00 0.00 94 1004.2
20260507002832 11 143 27.4 41.8 0.00 0.00 0.00 94 1003.9
20260507002332 11 143 24.1 40.2 0.00 0.00 0.00 94 1004.1
20260507001832 11 141 27.4 45.1 0.00 0.00 0.00 94 1004.0
20260507001332 11 136 27.4 41.8 0.00 0.00 0.00 94 1004.0
20260507000832 11 140 25.7 40.2 0.00 0.00 0.00 94 1003.9
20260507000332 11 133 24.1 35.4 0.00 0.00 0.00 94
20260506235832 11 137 20.9 37.0 0.00 0.00 0.00 94 1004.0
20260506235332 11 136 20.9 33.8 0.00 0.00 0.00 94 1004.0
20260506234832 11 136 19.3 33.8 0.00 0.00 0.00 94 1004.1
20260506234332 11 129 22.5 38.6 0.00 0.00 0.00 94 1004.0
20260506233833 11 130 22.5 33.8 0.00 0.00 0.00 94 1004.1
20260506233332 11 126 20.9 30.6 0.00 0.00 0.00 93 1004.2
20260506232832 11 126 17.7 27.4 0.00 0.00 0.00 93 1004.3
20260506232332 11 127 19.3 30.6 0.00 0.00 0.00 93 1004.3
20260506231832 11 129 20.9 33.8 0.00 0.00 0.00 93 1004.3
20260506231332 11 133 19.3 33.8 0.00 0.00 0.00 93 1004.4
20260506230832 11 135 20.9 35.4 0.00 0.00 0.00 93 1004.4
20260506230332 12 134 24.1 38.6 0.00 0.00 0.00 93 1004.1
20260506225832 12 136 25.7 38.6 0.00 0.00 0.00 93 1004.3
20260506225332 11 137 20.9 33.8 0.00 0.00 0.00 93 1004.3
20260506224832 11 133 16.1 29.0 0.00 0.00 0.00 92 1004.4
20260506224332 11 128 14.5 27.4 0.00 0.00 0.00 92 1004.4
20260506223832 12 132 19.3 33.8 0.00 0.00 0.00 92 1004.4
20260506223332 12 133 19.3 35.4 0.00 0.00 0.00 92
20260506222832 12 136 22.5 37.0 0.00 0.00 0.00 92
20260506222332 12 135 24.1 40.2 0.00 0.00 0.00 92
20260506221832 12 134 22.5 37.0 0.00 0.00 0.00 92 1004.6
20260506221332 12 133 24.1 37.0 0.00 0.00 0.00 92
20260506220832 12 134 24.1 37.0 0.00 0.00 0.00 92 1004.7
20260506220332 12 132 24.1 37.0 0.00 0.00 0.00 92
20260506215832 12 131 22.5 37.0 0.00 0.00 0.00 91 1004.8
20260506215332 12 132 22.5 35.4 0.00 0.00 0.00 91
20260506214832 12 135 24.1 37.0 0.00 0.00 0.00 91 1005.0
20260506214332 12 136 20.9 38.6 0.00 0.00 0.00 91 1005.1
20260506213832 12 136 20.9 35.4 0.00 0.00 0.00 91 1005.1
20260506213332 11 134 17.7 32.2 0.00 0.00 0.00 91 1005.1
20260506212832 11 135 20.9 32.2 0.00 0.00 0.00 91
20260506212332 11 133 19.3 35.4 0.00 0.00 0.00 91
20260506211831 11 135 22.5 32.2 0.00 0.00 0.00 91
20260506211332 11 134 17.7 27.4 0.00 0.00 0.00 90 1005.4
20260506210732 11 131 17.7 30.6 0.00 0.00 0.00 90 1005.4
20260506210232 11 128 20.9 32.2 0.00 0.00 0.00 89 1005.4
20260506205631 12 127 20.9 32.2 0.00 0.00 0.00 89 1005.3
20260506205132 12 131 22.5 38.6 0.00 0.00 0.00 89 1005.2
20260506204631 12 134 22.5 37.0 0.00 0.00 0.00 89 1005.4
20260506204131 12 134 22.5 33.8 0.00 0.00 0.00 89 1005.4
20260506203632 12 134 20.9 32.2 0.00 0.00 0.00 89 1005.4
20260506203131 11 133 16.1 30.6 0.00 0.00 0.00 88 1005.5
20260506202632 11 130 19.3 32.2 0.00 0.00 0.00 88
20260506202131 12 129 24.1 38.6 0.00 0.00 0.00 88 1005.1
20260506201632 12 129 25.7 38.6 0.00 0.00 0.00 88 1005.0
20260506201132 12 127 24.1 38.6 0.00 0.00 0.00 87 1005.0
20260506200631 12 128 25.7 37.0 0.00 0.00 0.00 87 1005.2
20260506200131 12 127 25.7 35.4 0.00 0.00 0.00 87 1005.2
20260506195631 12 128 20.9 40.2 0.00 0.00 0.00 87 1005.2
20260506195131 12 131 24.1 35.4 0.00 0.00 0.00 88 1005.4
20260506194631 12 127 19.3 38.6 0.00 0.00 0.00 87
20260506194131 12 132 22.5 37.0 0.00 0.00 0.00 87
20260506193632 12 133 22.5 37.0 0.00 0.00 0.00 87 1005.5
20260506193131 12 135 24.1 33.8 0.00 0.00 0.00 87 1005.5
20260506192632 12 129 20.9 35.4 0.00 0.00 0.00 86 1005.5
20260506192131 12 131 22.5 33.8 0.00 0.00 0.00 86 1005.4
20260506191631 12 133 22.5 33.8 0.00 0.00 0.00 85
20260506191131 12 137 24.1 38.6 0.00 0.00 0.00 85 1005.6
20260506190631 12 132 27.4 40.2 0.00 0.00 0.00 84 1005.5
20260506190132 12 131 27.4 38.6 0.00 0.00 0.00 84 1005.4
20260506185631 12 132 22.5 37.0 0.00 0.00 0.00 84
20260506185131 12 135 27.4 38.6 0.00 0.00 0.00 84
20260506184631 12 131 29.0 40.2 0.00 0.00 0.00 84 1005.3
20260506184131 12 126 29.0 40.2 0.00 0.00 0.00 84 1005.3
20260506183631 12 128 25.7 40.2 0.00 0.00 0.00 84 1005.2
20260506183131 12 127 22.5 38.6 0.00 0.00 0.00 84 1005.4
20260506182631 12 127 24.1 35.4 0.00 0.00 0.00 84 1005.6
20260506182131 12 128 24.1 43.5 0.00 0.00 0.00 84 1005.7
20260506181631 12 125 24.1 43.5 0.00 0.00 0.00 84 1005.7
20260506181131 12 126 22.5 40.2 0.00 0.00 0.00 84 1005.6
20260506180631 12 128 27.4 40.2 0.00 0.00 0.00 84 1005.9
20260506180131 12 126 25.7 43.5 0.00 0.00 0.00 84 1005.9
20260506175631 12 127 32.2 43.5 0.00 0.00 0.00 83
20260506175131 12 127 29.0 41.8 0.00 0.00 0.00 83 1005.9
20260506174631 12 124 29.0 43.5 0.00 0.00 0.00 84 1005.9
20260506174131 12 126 29.0 45.1 0.00 0.00 0.00 83
20260506173631 12 123 35.4 49.9 0.00 0.00 0.00 83 1005.7
20260506173131 12 127 29.0 45.1 0.00 0.00 0.00 83 1005.9
20260506172631 12 127 27.4 43.5 0.00 0.00 0.00 83
20260506172131 12 126 30.6 45.1 0.00 0.00 0.00 83
20260506171631 12 127 30.6 46.7 0.00 0.00 0.00 83 1005.9
20260506171131 12 125 27.4 46.7 0.00 0.00 0.00 83 1006.2
20260506170631 12 124 27.4 41.8 0.00 0.00 0.00 83 1006.2
20260506170131 12 124 29.0 43.5 0.00 0.00 0.00 83 1006.2
20260506165531 12 126 25.7 41.8 0.00 0.00 0.00 83 1006.2
20260506165031 12 122 29.0 45.1 0.00 0.00 0.00 83
20260506164531 12 121 25.7 40.2 0.00 0.00 0.00 83 1006.4
20260506164031 12 126 22.5 41.8 0.00 0.00 0.00 83 1006.4
20260506163531 12 124 25.7 40.2 0.00 0.00 0.00 83 1006.5
20260506163031 12 125 27.4 45.1 0.00 0.00 0.00 83 1006.6
20260506162531 12 123 24.1 41.8 0.00 0.00 0.00 84 1006.7
20260506162031 12 123 25.7 38.6 0.00 0.00 0.00 83 1006.9
20260506161531 12 121 27.4 40.2 0.00 0.00 0.00 83 1006.9
20260506161031 12 128 24.1 35.4 0.00 0.00 0.00 83 1007.1
20260506160531 12 124 25.7 38.6 0.00 0.00 0.00 83 1007.3
20260506160031 12 124 27.4 40.2 0.00 0.00 0.00 83
20260506155530 12 125 25.7 40.2 0.00 0.00 0.00 83 1007.5
20260506155030 13 128 22.5 37.0 0.00 0.00 0.00 83
20260506154531 13 131 25.7 37.0 0.00 0.00 0.00 83 1007.5
20260506154031 13 132 25.7 37.0 0.00 0.00 0.00 83
20260506153531 13 131 25.7 40.2 0.00 0.00 0.00 83 1007.8
20260506153031 13 130 25.7 37.0 0.00 0.00 0.00 83 1007.7
20260506152531 12 130 22.5 40.2 0.00 0.00 0.00 83 1007.8
20260506152031 13 130 24.1 35.4 0.00 0.00 0.00 82
20260506151530 13 133 22.5 33.8 0.00 0.00 0.00 82 1008.0
20260506151030 13 129 24.1 40.2 0.00 0.00 0.00 81 1008.0
20260506150530 13 138 24.1 37.0 0.00 0.00 0.00 82
20260506150031 14 132 24.1 40.2 0.00 0.00 0.00 82 1007.8
20260506145530 14 134 24.1 43.5 0.00 0.00 0.00 83 1007.6
20260506145031 13 134 27.4 43.5 0.00 0.00 0.00 83
20260506144530 13 132 25.7 43.5 0.00 0.00 0.00 83 1007.6
20260506144031 13 131 25.7 40.2 0.00 0.00 0.00 83
20260506143530 13 128 25.7 40.2 0.00 0.00 0.00 83 1007.5
20260506143031 13 128 24.1 37.0 0.00 0.00 0.00 83 1007.5
20260506142530 13 128 27.4 38.6 0.00 0.00 0.00 83
20260506142031 14 134 24.1 38.6 0.00 0.00 0.00 84 1007.5
20260506141530 13 135 25.7 41.8 0.00 0.00 0.00 84 1007.5
20260506141030 13 134 22.5 40.2 0.00 0.00 0.00 85 1007.6
20260506140531 13 133 22.5 38.6 0.00 0.00 0.00 85 1007.7
20260506140031 13 131 22.5 40.2 0.00 0.00 0.00 84
20260506135531 13 136 24.1 37.0 0.00 0.00 0.00 84
20260506135030 13 140 24.1 40.2 0.00 0.00 0.00 84 1008.0
20260506134530 13 139 22.5 37.0 0.00 0.00 0.00 84
20260506134030 13 137 29.0 45.1 0.00 0.00 0.00 85 1008.0
20260506133530 13 145 24.1 46.7 0.00 0.00 0.00 85
20260506133030 13 144 24.1 43.5 0.00 0.00 0.00 85 1008.0
20260506132530 13 138 25.7 43.5 0.00 0.00 0.00 86 1007.8
20260506132030 13 143 25.7 37.0 0.00 0.00 0.00 86 1008.0
20260506131530 13 143 22.5 35.4 0.00 0.00 0.00 86 1008.1
20260506131030 13 143 20.9 37.0 0.00 0.00 0.00 86 1008.2
20260506130530 13 141 20.9 40.2 0.00 0.00 0.00 86
20260506130030 13 134 24.1 37.0 0.00 0.00 0.00 86
20260506125530 13 138 24.1 37.0 0.00 0.00 0.00 86 1007.7
20260506125031 13 141 24.1 35.4 0.00 0.00 0.00 86
20260506124530 13 141 22.5 37.0 0.00 0.00 0.00 86
20260506124030 13 143 22.5 41.8 0.00 0.00 0.00 86 1008.1
20260506123530 13 142 22.5 40.2 0.00 0.00 0.00 87 1008.1
20260506123030 13 136 24.1 37.0 0.00 0.00 0.00 86 1008.0
20260506122530 12 139 24.1 40.2 0.00 0.00 0.00 87 1007.9
20260506122030 12 137 22.5 41.8 0.00 0.00 0.00 87 1007.9
20260506121530 12 142 22.5 41.8 0.00 0.00 0.00 87 1008.1